This is the latest recevied weather packets stored in our database for station/object OK2ILA-13. If no packets are shown the sender has not sent any weather packets the latest 10 day(s).
| Time | Temp. | Humidity | Pressure | Rain* | Wind** | Luminosity | Snow |
|---|---|---|---|---|---|---|---|
| 1777282529 | 11.67° C | 30% | 1022.8 hPa | - | - | - | - |
| 1777281929 | 12.22° C | 29% | 1022.9 hPa | - | - | - | - |
| 1777281330 | 13.33° C | 28% | 1022.9 hPa | - | - | - | - |
| 1777280730 | 11.11° C | 30% | 1023.1 hPa | - | - | - | - |
| 1777280131 | 13.33° C | 28% | 1023.1 hPa | - | - | - | - |
| 1777279531 | 11.11° C | 30% | 1023.2 hPa | - | - | - | - |
| 1777278931 | 11.11° C | 30% | 1023.2 hPa | - | - | - | - |
| 1777278332 | 12.78° C | 29% | 1023.3 hPa | - | - | - | - |
| 1777277732 | 12.22° C | 28% | 1023.5 hPa | - | - | - | - |
| 1777277132 | 13.33° C | 30% | 1023.3 hPa | - | - | - | - |
| 1777276533 | 12.78° C | 28% | 1023.4 hPa | - | - | - | - |
| 1777275933 | 12.78° C | 29% | 1023.6 hPa | - | - | - | - |
| 1777275334 | 12.78° C | 29% | 1023.6 hPa | - | - | - | - |
| 1777274734 | 12.22° C | 29% | 1023.6 hPa | - | - | - | - |
| 1777274134 | 12.22° C | 30% | 1023.5 hPa | - | - | - | - |
| 1777273535 | 11.67° C | 31% | 1023.5 hPa | - | - | - | - |
| 1777272935 | 11.11° C | 31% | 1023.5 hPa | - | - | - | - |
| 1777272335 | 10.56° C | 32% | 1023.4 hPa | - | - | - | - |
| 1777271736 | 9.44° C | 34% | 1023.5 hPa | - | - | - | - |
| 1777271136 | 8.33° C | 35% | 1023.6 hPa | - | - | - | - |
| 1777270537 | 8.89° C | 36% | 1023.5 hPa | - | - | - | - |
| 1777269937 | 7.78° C | 37% | 1023.4 hPa | - | - | - | - |
| 1777269337 | 6.67° C | 39% | 1023.4 hPa | - | - | - | - |
| 1777268738 | 6.11° C | 40% | 1023.3 hPa | - | - | - | - |
| 1777268138 | 5.56° C | 40% | 1023.3 hPa | - | - | - | - |
* Rain since midnight (hover to see other rain measurements)
** Current wind speed in m/s (hover to see current wind gust speed)